Regional Weather Roundup
Issued by NWS Boston, MA

Current Version | Previous Version | Text Only | Print | Product List | Glossary Off
Versions: 1 2 3 4 5 6 7 8 9 10 11 12 13 14 15 16 17 18 19 20 21 22 23 24 25 26 27 28 29 30 31 32 33 34 35 36 37 38 39 40 41 42 43 44 45 46 47 48 49 50
000 ASUS41 KBOX 231100 RWRBOX REGIONAL WEATHER ROUNDUP NATIONAL WEATHER SERVICE BOSTON/NORTON MA 700 AM EDT SAT MAR 23 2019 NOTE: "FAIR" INDICATES FEW OR NO CLOUDS BELOW 12,000 FEET WITH NO SIGNIFICANT WEATHER AND/OR OBSTRUCTIONS TO VISIBILITY. MAZALL-231200- EASTERN MASSACHUSETTS CITY SKY/WX TMP DP RH WIND PRES REMARKS BOSTON FLURRIES 35 28 75 W22G35 29.35R WCI 23 BEVERLY CLOUDY 34 29 82 W16G24 29.32R WCI 24 LAWRENCE CLOUDY 35 27 72 W15G23 29.35R WCI 25 BEDFORD NOT AVBL BLUE HILL N/A 29 28 96 W25G36 29.33R WCI 14 NORWOOD LGT SNOW 34 27 75 W15G24 29.39R WCI 24 MARSHFIELD NOT AVBL PLYMOUTH LGT SNOW 31 27 85 W20G31 29.37R FOG WCI 19 TAUNTON LGT SNOW 32 27 81 W15G25 29.40R WCI 22 NEW BEDFORD LGT SNOW 31 29 92 W24G31 29.40R FOG WCI 17 $$ MAZALL-231200- CAPE COD AND THE ISLANDS CITY SKY/WX TMP DP RH WIND PRES REMARKS FALMOUTH LGT SNOW 30 28 93 W25 29.38R WCI 16 HYANNIS NOT AVBL CHATHAM MIX PCPN 33 27 78 W14G29 29.35R WCI 23 PROVINCETOWN LGT SNOW 33 31 92 W24G35 29.33R FOG WCI 20 NANTUCKET LGT SNOW 33 30 88 W30G37 29.38R FOG WCI 19 MARTHAS VNYRD LGT SNOW 32 30 92 W20G36 29.41R FOG WCI 20 $$ MAZALL-231200- CENTRAL AND WESTERN MASSACHUSETTS CITY SKY/WX TMP DP RH WIND PRES REMARKS WORCESTER LGT SNOW 26 23 88 W22G35 29.39R VSB 3/4 WCI 12 FITCHBURG LGT SNOW 31 25 78 NW25G36 29.39R WCI 17 ORANGE NOT AVBL SPRINGFIELD NOT AVBL WESTFIELD CLOUDY 31 19 61 NW17G26 29.54R WCI 19 NORTH ADAMS LGT SNOW 26 22 84 W17G29 29.58R FOG WCI 13 PITTSFIELD LGT SNOW 24 19 81 NW17G35 29.55R WCI 11 $$ RIZALL-231200- RHODE ISLAND CITY SKY/WX TMP DP RH WIND PRES REMARKS PROVIDENCE LGT SNOW 31 26 82 W20G32 29.44R FOG WCI 19 NEWPORT LGT SNOW 30 28 92 W18G32 29.44R FOG WCI 18 BLOCK ISLAND MIX PCPN 32 27 81 W20G32 29.51R WCI 20 SMITHFIELD FLURRIES 29 25 85 W21G28 29.42R WCI 16 WESTERLY CLOUDY 34 27 75 W9G22 29.51R WCI 27 $$ CTZALL-231200- CONNECTICUT CITY SKY/WX TMP DP RH WIND PRES REMARKS BRADLEY INTL CLOUDY 32 20 61 NW24G38 29.55R WCI 19 HARTFORD CLOUDY 33 21 61 W18G36 29.56R WCI 22 BRIDGEPORT FAIR 35 20 54 W20G32 29.61R WCI 24 DANBURY FAIR 31 18 58 NW13G23 29.62R WCI 21 GROTON NOT AVBL NEW HAVEN CLOUDY 36 23 59 NW10G24 29.59R WCI 28 CHESTER CLOUDY 32 25 74 NW14G24 29.54R WCI 22 MERIDEN CLOUDY 32 22 66 NW15G33 29.58R WCI 22 WILLIMANTIC LGT SNOW 29 24 82 NW13G25 29.52R WCI 19 OXFORD FLURRIES 28 23 81 NW13G25 29.57R WCI 17 $$ MEZ002-015-021-024-NHZ003-005-008-011-012-014-VTZ005-008-231200- NORTHERN NEW ENGLAND CITY SKY/WX TMP DP RH WIND PRES REMARKS PORTLAND ME MOCLDY 39 31 72 NW16 29.21R WCI 30 BANGOR ME LGT RAIN 36 34 92 NW12 29.12R WCI 28 CONCORD NH CLOUDY 34 25 69 NW18G29 29.36R WCI 23 MANCHESTER NH CLOUDY 37 24 59 NW17G37 29.34R WCI 27 NASHUA NH CLOUDY 34 28 79 W17G25 29.37R WCI 23 PORTSMOUTH NH NOT AVBL JAFFREY NH MOCLDY 29 24 82 W14G22 29.40R WCI 18 KEENE NH LGT SNOW 29 24 82 W9G21 29.47R WCI 20 BURLINGTON VT SNOW 24 21 88 NW14 29.61R VSB 1/2 WCI 12 MT. WASHINGTON SNOWSHWR 12 12 100 NW74G96 N/A VSB 1/16WCI -17 $$ NYZ052-076-231200- EASTERN NEW YORK CITY SKY/WX TMP DP RH WIND PRES REMARKS ALBANY CLOUDY 29 18 63 NW23G39 29.67R WCI 15 NEW YORK CITY MOCLDY 35 20 54 NW22G33 29.70R WCI 23 $$ ANZALL-231200- MARINE OBSERVATIONS STATION/POSITION TIME TEMP WIND PRES VSBY WAVE AIR SEA DIR/SP/G HT/PER (UTC) (F) (DEG/KT/KT) (MB) (MI) (FT/S) BOSTON BUOY 0950 34 39 270/ 29/ 35 990.5 5/ 5 BUZZARDS BAY 1000 280/ 37/ 42 996.3R NANTUCKET SOUND 1040 34 39 280/ 33/ 41 994.2R MASS BAY-STELLWA NOT AVBL ISLE OF SHOALS 1000 37 280/ 24/ 26 988.9R S OF BLOCK IS 1030 42 N/A 12/ 9 $$ ......................KEY......................... SKY/WX - SKY CONDITION/PRESENT WEATHER TMP - TEMPERATURE IN FAHRENHEIT DWPT - DEWPOINT IN FAHRENHEIT RH - RELATIVE HUMIDITY IN PERCENT WIND - DIRECTION AND SPEED IN MPH PRES - MEAN SEA LEVEL PRESSURE IN INCHES OF HG WCI - WIND CHILL INDEX VSB - VISIBILITY IN MILES HX - HEAT INDEX TC - TEMPERATURE IN CELSIUS VRB - VARIABLE WIND DIRECTION N/A - NOT AVAILABLE

USA.gov is the U.S. government's official web portal to all federal, state and local government web resources and services.